This demonstration page uses our WeatherBlox Daily Observations layout. Learn more.

Left ArrowRight Arrow

Hourly Observations for June 26, 2021

Temp ( °F °C ) Dew Point ( °F °C ) Humidity (%) Winds ( mph kmh ) Pressure ( in mb ) Visibility ( mi km ) Precip ( " mm )
12:53 am 00:53 Clear 76 24.4 69 20.6 79 79 VRB 3 6 30.04 1017 10 16 N/A
1:53 am 01:53 Clear 77 25 68 20 74 74 VRB 5 7 30.04 1017 10 16 N/A
2:53 am 02:53 Clear 75 23.9 68 20 79 79 SSW 3 6 30.03 1017 10 16 N/A
3:53 am 03:53 Clear 75 23.9 68 20 79 79 S 6 9 30.02 1017 10 16 N/A
4:53 am 04:53 Clear 74 23.3 67 19.4 79 79 N N/A 30.02 1017 10 16 N/A
5:53 am 05:53 Clear 74 23.3 67 19.4 79 79 N N/A 30.03 1017 8 13 N/A
6:53 am 06:53 Sunny 74 23.3 67 19.4 79 79 VRB 3 6 30.03 1017 10 16 N/A
7:53 am 07:53 Sunny 75 23.9 67 19.4 76 76 VRB 7 11 30.04 1017 10 16 N/A
8:53 am 08:53 Sunny 75 23.9 67 19.4 76 76 VRB 5 7 30.05 1018 10 16 N/A
9:53 am 09:53 Cloudy 77 25 68 20 74 74 undefined N/A 30.06 1018 10 16 N/A
10:53 am 10:53 Mostly Cloudy 81 27.2 69 20.6 67 67 undefined N/A 30.05 1018 10 16 N/A
11:53 am 11:53 Mostly Cloudy 83 28.3 69 20.6 63 63 SSW 8 13 30.05 1018 10 16 N/A
12:53 pm 12:53 Cloudy 82 27.8 69 20.6 65 65 undefined N/A 30.06 1018 10 16 N/A
1:53 pm 13:53 Mostly Cloudy 84 28.9 69 20.6 61 61 VRB 6 9 30.05 1018 10 16 N/A
2:53 pm 14:53 Mostly Cloudy 84 28.9 69 20.6 61 61 SSW 8 13 30.03 1017 10 16 N/A
3:53 pm 15:53 Mostly Cloudy 84 28.9 68 20 59 59 VRB 7 11 30.02 1017 10 16 N/A
5:53 pm 17:53 Mostly Sunny 86 30 68 20 55 55 S 8 13 30.00 1016 10 16 N/A
6:53 pm 18:53 Mostly Sunny 85 29.4 67 19.4 55 55 VRB 3 6 29.99 1016 10 16 N/A
7:53 pm 19:53 Sunny 84 28.9 66 18.9 55 55 VRB 7 11 29.99 1016 10 16 N/A
8:53 pm 20:53 Sunny 82 27.8 65 18.3 56 56 VRB 5 7 29.98 1015 10 16 N/A
9:53 pm 21:53 Clear with Light Rain 80 26.7 66 18.9 62 62 VRB 5 7 30.00 1016 7 11 0.00 0.00
10:53 pm 22:53 Clear 79 26.1 66 18.9 65 65 VRB 5 7 30.03 1017 10 16 0.00 0.00
11:53 pm 23:53 Clear 79 26.1 66 18.9 65 65 VRB 5 7 30.02 1017 10 16 N/A

Powered by AerisWeather